GFSSW_250_rhum_147.txt.gz
RH
60 50 74 53 67 93 100 93 88 78 84 86 67 66 80 100 100 100 100 66 46 39 36 42 80 100 100 100 100 100 96 78 65 97 51 46 49 32 27 22 33 66 49 71 86
74 65 40 51 79 68 64 79 65 68 66 81 98 70 53 78 95 100 100 92 85 72 44 36 29 60 84 94 100 90 84 69 67 63 51 46 36 41 30 31 72 51 46 80 100
94 82 82 75 71 69 68 58 83 85 94 63 81 98 94 56 70 92 100 100 100 100 86 64 49 29 54 71 80 96 94 68 63 66 63 37 32 43 46 66 71 72 80 99 100
75 82 93 95 88 93 74 94 88 84 72 83 70 96 100 100 100 88 100 83 99 100 100 100 64 37 55 99 100 100 81 71 62 59 44 32 59 72 82 73 63 99 83 88 92
68 75 79 94 100 98 88 81 99 99 92 87 75 64 100 100 100 100 97 94 78 94 100 79 72 58 60 88 99 81 64 50 39 37 33 38 47 42 48 29 46 48 45 42 58
71 69 63 73 93 100 100 100 100 100 95 80 69 64 67 100 100 100 100 81 76 100 100 57 57 75 66 57 58 62 62 42 31 27 30 40 33 31 35 57 39 48 54 55 59
69 70 74 70 96 99 100 100 100 98 92 79 71 66 82 100 100 100 90 78 100 100 75 55 81 99 87 72 60 49 54 44 39 32 31 30 27 31 43 35 41 45 46 40 36
73 89 99 100 100 100 100 100 100 98 83 81 100 100 100 100 91 90 88 97 100 86 78 56 79 87 77 82 85 65 42 34 33 34 34 32 30 35 40 38 38 38 38 36 33
78 100 100 100 100 98 100 100 100 100 87 67 63 100 100 100 100 100 99 100 99 84 88 79 88 92 99 83 54 43 38 40 39 39 37 35 40 48 51 48 45 43 41 38 41
65 90 96 100 100 100 100 100 100 99 97 89 90 76 100 100 96 99 86 86 88 100 100 100 100 100 100 83 60 47 45 47 47 41 34 56 45 46 54 52 56 56 60 62 64
74 97 100 100 96 96 100 100 100 100 100 100 100 65 91 100 88 75 100 100 97 100 100 100 100 81 67 62 49 52 51 57 56 40 50 49 53 80 64 61 54 62 74 74 68
78 100 100 98 100 100 100 100 83 94 97 99 100 66 96 100 100 95 100 100 94 99 100 86 84 82 62 71 88 80 72 70 56 50 46 56 48 47 42 51 67 100 100 100 100
81 90 100 96 99 100 85 99 100 92 79 100 92 100 100 92 97 100 100 100 82 76 100 99 100 94 65 57 75 87 92 83 75 67 66 54 34 38 60 69 98 67 71 88 94
66 47 77 81 80 91 74 83 71 90 76 82 100 100 100 98 91 100 100 100 100 100 100 100 88 91 66 71 71 77 74 73 76 79 79 88 75 74 99 98 82 71 41 38 47
100 97 59 63 86 94 69 62 74 71 71 63 72 85 100 100 100 97 100 100 100 100 100 87 82 79 83 86 78 79 88 82 99 100 98 100 100 100 100 84 80 81 97 81 93
100 100 100 98 99 100 96 100 67 89 69 49 59 61 95 100 100 100 100 100 100 100 94 91 89 92 87 79 77 73 96 100 100 100 83 100 100 100 100 100 100 97 89 90 80
100 100 100 100 100 100 100 100 100 90 83 77 70 57 71 82 100 100 100 100 100 100 100 100 90 77 63 84 100 100 100 100 100 100 100 100 100 100 100 100 100 100 100 82 66
100 100 100 100 100 100 100 100 100 100 100 87 64 78 54 61 81 100 100 100 100 100 100 100 100 100 100 84 100 100 100 100 100 100 99 94 100 100 100 100 100 100 90 79 81
100 100 100 100 100 100 100 100 100 100 100 100 100 86 100 74 61 61 99 95 100 100 100 100 99 100 100 94 92 80 69 100 99 100 100 100 88 100 100 100 100 93 98 92 85
56 68 92 100 95 100 100 100 100 100 100 100 100 100 100 100 94 58 59 85 84 100 100 100 100 98 93 74 56 66 96 95 86 90 100 100 100 100 100 99 92 100 96 92 72
52 44 52 64 85 100 100 100 100 100 100 100 100 100 100 100 100 99 99 88 87 81 98 96 100 100 100 100 100 100 100 97 93 92 100 100 100 93 99 100 92 89 96 64 57
46 42 48 58 62 62 67 88 100 100 100 100 100 100 100 100 100 100 100 100 100 92 68 87 100 100 100 100 100 100 100 100 100 100 100 88 70 78 71 70 70 60 70 61 72
41 34 43 54 53 51 52 65 84 100 100 100 100 100 100 100 100 100 100 100 100 100 100 100 100 99 88 80 79 99 99 98 92 90 88 78 57 88 100 98 100 98 76 61 71
23 26 30 40 42 48 49 49 66 92 90 100 100 100 100 100 100 100 100 100 100 98 100 100 100 100 100 100 98 86 86 86 84 76 78 79 99 100 100 88 77 76 75 73 80
15 16 20 17 18 33 48 47 54 69 68 97 100 100 100 100 100 100 100 100 100 100 100 100 100 98 100 100 100 100 100 100 100 100 100 100 99 100 99 100 94 92 86 98 100
9 13 15 15 14 15 22 21 28 38 47 49 72 94 100 100 100 100 100 100 100 100 100 100 100 100 100 100 100 100 100 100 100 100 100 94 94 100 100 100 100 100 100 100 100
5 8 11 13 10 10 13 15 20 45 42 53 70 71 76 89 100 100 100 100 100 100 100 100 100 100 100 100 100 99 100 100 100 100 100 100 100 100 100 100 100 100 100 100 88

GFSSW_250_rhum_150.txt.gz
RH
82 88 62 52 68 76 85 88 100 100 98 97 100 100 94 88 71 63 79 80 72 64 95 99 100 87 76 81 57 41 40 29 25 37 70 70 61 52 41 37 24 27 38 40 44
60 62 51 52 66 68 75 89 80 84 90 82 92 87 82 84 76 58 76 90 82 67 53 71 95 100 83 92 89 78 68 41 35 79 94 79 53 52 52 42 28 26 49 77 53
64 60 44 58 45 52 71 88 90 80 78 82 74 81 78 87 96 61 52 81 99 100 99 96 94 99 98 92 98 100 94 47 52 100 98 63 48 41 32 32 40 31 47 40 37
74 70 69 53 54 46 46 62 73 95 100 100 100 100 92 90 100 81 64 52 66 98 100 98 92 87 87 70 78 87 80 48 82 92 55 55 43 31 27 38 29 34 31 26 31
68 75 71 64 60 53 49 52 61 72 81 67 96 100 100 100 100 99 85 77 70 86 99 100 93 100 82 76 100 72 59 62 65 65 47 36 37 33 30 31 28 24 25 26 29
52 58 58 60 59 62 55 49 52 58 65 58 64 96 100 100 100 100 100 98 65 65 73 79 100 95 87 100 88 64 89 81 81 73 48 42 34 29 30 30 26 23 20 29 31
47 49 48 48 51 53 68 59 57 53 58 51 67 83 100 100 100 95 85 76 74 99 67 81 96 87 100 99 80 58 99 100 83 52 62 40 35 35 33 30 25 25 34 39 40
55 48 51 52 42 61 76 75 64 61 69 60 76 83 100 100 100 98 78 100 97 100 91 95 98 100 98 97 77 76 91 92 91 68 47 46 42 41 35 40 27 26 40 41 48
56 47 54 62 67 70 68 89 91 84 81 78 88 100 100 100 100 100 94 83 100 100 100 99 100 97 91 100 98 100 99 100 98 74 54 46 49 46 45 52 44 43 67 58 57
69 70 59 77 58 83 99 100 99 100 97 87 85 85 100 100 100 94 88 86 92 100 100 100 100 87 100 100 100 100 100 98 76 60 53 52 58 53 52 57 56 45 39 46 49
80 94 98 70 65 58 82 100 90 95 74 100 89 98 97 100 100 100 99 100 93 98 100 84 95 100 100 100 100 100 100 91 70 73 74 76 76 67 58 55 54 66 60 62 75
95 76 100 99 100 76 75 94 98 100 83 93 99 94 100 100 99 100 100 84 84 100 100 80 100 100 97 99 100 100 100 100 85 60 60 62 71 86 59 51 57 53 69 96 100
100 100 96 90 86 94 80 98 100 88 100 88 100 96 100 96 79 91 98 91 89 99 100 97 100 100 100 89 85 100 100 89 89 76 70 63 52 59 74 95 67 53 64 97 100
100 90 99 100 89 95 94 100 100 92 75 91 100 100 100 100 94 99 98 100 97 73 90 96 100 100 100 100 94 98 100 100 82 74 68 75 72 64 89 76 72 73 71 70 100
100 100 100 100 92 80 83 100 100 100 100 97 66 91 99 100 98 100 96 100 100 100 100 100 100 100 96 100 100 100 100 100 79 69 70 67 63 88 89 67 64 68 98 81 67
100 100 100 100 100 99 84 96 90 100 98 86 73 52 92 100 96 84 100 98 100 100 100 100 100 100 100 100 100 99 99 100 100 100 67 90 97 71 91 96 89 83 79 86 88
100 100 100 100 100 100 100 97 100 73 100 100 67 42 43 62 94 99 91 93 96 100 100 100 100 100 100 100 100 100 100 100 100 100 100 100 100 68 99 100 89 76 87 98 88
90 100 100 100 100 100 100 100 100 100 93 100 100 86 37 39 58 68 76 82 96 96 89 100 100 100 100 100 100 100 100 100 100 100 100 100 98 98 100 99 85 97 92 76 77
52 89 100 100 100 100 100 100 100 100 100 100 100 100 100 38 49 69 40 51 77 100 100 100 99 100 100 100 100 100 100 100 100 100 98 100 100 98 97 100 98 85 69 67 62
49 52 68 98 100 100 100 100 100 100 100 100 100 100 100 100 77 63 53 47 62 59 99 95 86 100 100 100 100 100 100 100 100 100 100 100 93 98 100 89 64 68 71 65 62
45 49 58 64 69 78 100 100 100 100 100 100 100 100 100 100 100 98 65 72 81 99 94 67 65 90 100 96 100 100 100 100 100 96 94 92 95 100 80 92 100 93 78 66 75
41 32 62 64 57 51 55 71 91 100 100 100 100 100 100 100 100 100 100 100 87 82 87 68 72 59 79 93 72 71 76 80 99 100 100 100 73 100 100 100 98 84 77 72 69
29 36 51 51 50 47 53 48 47 63 92 98 100 100 100 100 100 100 100 100 100 100 92 80 95 94 98 98 92 100 100 99 97 98 91 87 97 100 94 100 94 78 83 64 56
25 25 36 42 39 45 48 43 48 46 50 51 59 84 100 100 100 100 100 100 100 100 100 100 100 90 93 100 97 94 97 100 98 92 96 80 85 77 86 77 67 64 69 80 78
15 16 23 28 34 34 40 45 48 44 50 48 48 57 82 86 86 100 100 100 100 100 100 100 100 100 100 100 96 92 95 92 98 96 80 71 77 74 67 76 96 95 100 100 100
8 10 13 19 22 23 30 23 35 45 41 43 48 60 59 55 68 100 100 100 100 100 100 100 100 100 100 93 96 100 100 100 100 100 100 100 78 100 100 100 100 100 100 100 100
5 7 8 11 14 16 16 20 26 38 34 39 45 56 52 53 70 65 65 75 100 100 100 100 100 100 100 100 100 100 100 100 100 100 100 100 100 100 100 100 100 100 100 100 100

GFSSW_250_rhum_156.txt.gz
RH
90 82 100 100 70 61 62 65 55 63 80 69 55 54 60 77 74 73 91 100 100 100 100 100 100 100 95 87 76 71 71 56 42 36 37 48 49 58 61 54 61 47 35 54 43
100 91 100 100 84 78 100 78 92 86 72 53 60 72 63 65 81 68 71 82 91 100 99 98 97 100 94 90 88 74 86 69 54 49 32 26 31 36 48 57 68 48 57 51 41
100 100 100 100 67 64 74 82 97 88 83 95 62 60 78 69 80 64 60 64 71 79 90 100 95 88 100 97 94 88 87 66 51 48 31 29 29 46 66 86 71 58 51 51 43
61 93 97 100 100 73 78 84 86 74 94 81 95 63 74 82 66 58 50 54 55 62 67 81 91 100 100 99 96 78 65 68 60 43 33 26 34 58 75 84 69 59 59 71 52
66 46 60 64 88 55 83 85 95 94 79 100 97 84 72 75 96 71 78 71 64 57 57 71 71 78 92 73 69 74 58 77 54 34 29 28 33 58 94 94 70 63 92 80 50
65 64 46 40 57 69 58 76 91 98 86 77 73 76 78 86 82 77 73 75 69 66 63 57 62 68 72 71 62 58 84 86 54 39 31 35 41 67 100 85 75 76 73 64 47
51 64 58 42 45 55 59 50 58 74 78 78 70 62 59 62 63 78 79 71 73 61 59 62 60 54 58 62 67 71 96 88 56 35 34 34 56 100 100 82 91 94 92 67 50
47 45 44 53 38 40 43 39 41 50 53 56 57 51 46 55 49 57 72 75 64 62 61 59 58 61 61 63 82 100 93 82 67 47 46 60 78 96 89 90 100 100 92 73 57
44 60 42 49 50 45 40 39 50 45 50 48 48 50 51 56 57 60 64 73 72 66 63 63 72 66 76 92 99 100 93 77 58 52 80 51 79 100 98 100 100 100 100 74 64
43 36 62 57 55 63 79 79 58 70 55 61 56 59 66 62 70 86 77 88 78 66 77 73 66 84 99 100 99 100 85 86 79 100 60 86 100 91 84 100 100 100 100 98 79
100 100 100 100 98 100 100 86 100 100 98 90 88 99 63 82 92 100 98 90 87 97 98 78 81 100 100 100 95 100 91 80 98 100 74 68 99 100 100 100 100 100 100 100 100
72 90 100 100 100 78 92 85 65 80 81 99 100 100 100 91 50 100 85 96 96 96 91 83 81 100 95 100 100 100 85 94 100 100 75 77 94 92 100 100 100 100 100 100 100
52 80 99 97 74 49 48 64 62 65 34 58 90 85 100 91 71 97 100 100 100 99 100 100 98 95 94 96 100 100 100 100 97 90 77 81 78 100 100 100 100 100 100 100 100
97 70 69 48 66 44 42 45 50 36 48 37 59 71 94 81 53 98 100 100 92 100 100 100 99 100 90 89 100 100 100 100 97 92 98 88 80 100 100 100 100 100 100 100 100
83 64 63 64 63 47 45 47 44 58 60 43 48 67 93 78 46 95 100 100 100 100 100 100 95 96 76 81 95 99 100 100 100 100 100 96 76 85 100 100 100 100 100 100 100
53 58 59 63 54 50 55 55 65 72 80 62 64 74 81 87 77 94 91 89 100 100 94 91 99 100 100 100 100 100 100 100 100 100 83 100 100 100 100 100 100 100 100 100 100
39 35 49 54 60 56 51 59 68 74 79 85 74 74 87 92 78 99 100 89 87 100 100 93 97 100 100 100 100 100 100 100 90 82 78 95 95 91 88 100 100 100 100 100 100
33 34 38 44 54 50 53 49 46 49 64 72 71 100 99 83 96 82 96 100 99 92 100 91 86 94 100 100 100 100 100 100 97 98 99 94 76 100 77 73 100 100 100 98 100
37 38 39 43 42 44 50 51 36 59 60 68 72 82 96 100 99 100 100 69 77 99 96 96 81 99 100 100 100 100 100 100 100 100 100 100 100 100 100 100 100 100 100 100 100
34 35 38 44 48 48 53 42 39 41 61 62 59 77 83 98 100 100 100 85 77 87 83 90 96 100 100 100 100 100 100 100 100 100 99 99 96 95 97 100 91 85 98 99 96
29 31 40 46 48 50 39 36 48 54 52 59 52 76 75 84 94 100 100 100 100 100 100 81 66 63 62 64 78 89 98 99 100 95 88 74 65 76 93 80 74 82 83 85 87
21 23 34 40 41 40 33 42 47 52 44 45 54 66 68 75 68 80 100 100 100 98 100 100 100 92 52 66 65 67 82 64 68 71 69 66 62 59 59 73 76 63 54 50 57
6 7 10 14 14 20 25 26 26 34 41 45 45 49 61 66 69 74 70 95 100 100 100 100 100 96 94 82 78 96 60 61 67 65 65 66 50 62 63 62 70 74 69 75 90
5 5 6 7 7 8 9 10 13 15 20 26 31 39 42 46 60 58 56 67 96 100 100 100 100 100 93 94 80 58 76 86 98 80 60 54 72 84 71 71 69 73 76 71 61
4 5 6 6 7 7 7 7 8 8 10 14 17 21 28 38 43 37 59 64 78 92 100 100 100 100 100 100 98 100 94 91 93 83 59 77 70 69 90 95 92 87 84 77 73
5 6 6 7 7 7 7 7 8 9 10 11 12 15 17 18 28 33 47 53 73 78 84 100 100 100 100 100 100 100 100 100 95 82 82 98 86 100 100 100 100 100 100 100 100
6 6 6 6 7 8 9 10 10 10 11 12 14 15 15 25 34 39 43 50 56 68 80 76 87 100 100 100 100 100 100 100 100 100 100 100 100 100 100 100 100 100 100 100 100

GFSSW_250_rhum_159.txt.gz
RH
100 100 100 100 100 100 100 86 81 86 70 64 61 64 53 51 75 84 75 75 61 56 62 71 82 94 84 73 90 83 100 100 100 79 83 73 50 43 38 31 27 37 37 45 49
100 100 97 99 100 100 100 100 92 75 73 55 51 63 92 85 79 56 61 58 67 78 64 72 53 71 83 78 83 91 100 94 98 91 85 73 50 43 36 30 29 27 29 59 61
100 100 100 100 92 96 100 100 100 99 100 99 87 70 75 78 93 84 70 77 63 71 71 74 60 50 54 60 70 70 74 89 100 90 83 65 46 45 38 27 25 24 44 60 80
100 100 100 100 94 90 82 85 90 100 100 100 100 84 80 92 100 100 100 80 76 73 86 88 73 63 55 59 59 60 79 68 78 75 76 63 52 57 46 32 27 33 55 56 72
100 100 97 90 90 88 78 78 74 65 93 93 96 100 92 96 100 89 100 97 98 100 83 84 88 83 76 71 61 59 60 59 72 68 70 51 57 67 48 34 32 38 58 64 84
83 95 98 85 78 79 70 71 57 78 57 47 63 84 78 100 100 99 92 90 87 99 89 90 88 85 85 70 60 58 56 61 60 62 57 51 64 62 51 35 39 46 68 70 96
94 89 86 87 69 65 69 49 61 47 71 72 56 48 81 73 72 86 96 82 79 81 84 71 69 64 69 77 62 58 50 49 59 54 50 61 63 72 54 48 56 73 64 89 96
82 67 75 76 64 36 44 46 46 54 55 72 69 51 55 70 64 66 72 76 82 77 78 72 64 68 69 79 66 62 50 69 67 62 63 68 83 87 71 63 64 60 66 94 100
43 49 42 41 52 36 35 39 40 43 55 62 60 47 44 61 52 60 60 67 66 68 65 70 58 61 61 71 76 69 63 58 68 82 84 93 97 100 75 51 54 65 88 100 100
35 46 42 42 39 42 32 37 35 56 69 74 54 67 58 59 79 60 56 60 60 64 65 61 64 70 78 94 73 69 69 74 70 85 81 83 72 79 72 63 68 81 100 100 100
52 52 86 60 70 80 58 58 61 83 75 87 100 83 70 88 89 77 93 82 69 67 95 84 73 72 65 77 82 84 71 94 100 100 90 85 80 84 67 71 75 92 92 100 100
90 100 95 100 82 89 99 92 97 100 78 67 95 77 88 98 66 100 90 84 83 88 97 70 69 82 58 68 86 82 88 100 100 100 83 94 89 76 80 100 94 94 91 100 100
100 100 94 96 83 85 71 95 68 85 72 94 81 75 63 94 93 100 78 71 55 59 58 66 74 90 86 79 83 90 98 100 98 75 54 64 92 96 90 99 100 100 100 100 100
65 80 72 92 62 96 99 95 86 94 67 100 100 67 77 75 87 94 75 48 49 57 54 40 66 85 82 75 100 100 100 100 93 79 74 79 64 100 100 100 100 100 100 100 100
76 66 99 97 99 100 97 84 99 100 100 99 72 66 47 54 61 66 58 51 42 64 73 51 78 86 84 100 100 99 100 95 94 89 66 70 76 99 100 100 100 100 100 100 100
84 75 100 92 92 93 99 100 93 70 100 84 68 92 91 77 53 52 63 53 50 50 73 84 100 96 93 100 100 100 94 98 91 88 66 89 97 93 100 100 100 100 100 100 100
61 100 100 100 85 100 100 89 100 100 69 100 98 71 84 63 61 66 54 53 58 79 95 100 96 100 100 100 100 100 100 100 100 100 100 100 100 93 100 100 100 100 100 100 100
48 58 57 63 88 93 100 100 77 95 100 95 92 69 44 52 62 62 53 68 70 94 89 81 95 100 100 100 100 100 100 100 100 97 99 100 100 100 100 100 100 100 100 100 100
43 45 43 44 53 80 99 69 58 61 73 88 72 50 38 44 55 62 66 68 74 80 86 84 85 87 99 100 100 100 99 100 100 100 88 99 100 100 100 100 100 100 100 100 100
50 57 53 43 52 53 48 41 28 34 44 35 40 40 41 40 45 70 68 63 65 81 80 85 88 93 76 77 90 96 100 99 94 88 95 98 100 100 100 100 100 100 100 100 100
40 50 62 47 53 43 40 36 33 38 36 31 39 44 47 48 44 52 56 60 85 92 82 70 98 74 84 82 80 99 100 99 99 91 77 71 78 100 100 100 100 100 100 100 95
24 29 45 38 40 33 39 34 32 49 38 32 46 38 45 54 50 51 48 65 61 88 98 95 72 72 63 71 97 81 81 100 100 100 96 67 69 68 81 81 100 100 91 86 82
13 17 20 27 26 30 38 37 40 45 40 38 49 46 51 51 58 58 54 69 66 70 90 100 91 100 89 72 74 100 92 99 100 100 78 61 73 100 44 49 53 61 62 52 50
6 7 9 12 15 21 25 28 30 29 30 32 40 50 59 55 67 60 73 87 84 92 89 96 94 94 100 100 99 92 100 100 100 100 100 100 91 100 100 76 49 39 37 34 34
5 6 6 6 6 7 7 7 8 9 12 16 22 33 44 43 51 55 81 70 83 80 79 83 94 99 96 100 100 99 89 79 90 94 100 100 99 100 90 94 80 88 84 81 79
5 6 6 6 6 6 6 7 7 7 8 9 9 10 11 15 28 41 62 67 68 65 68 66 72 98 82 99 100 100 100 100 100 100 100 100 87 98 99 88 78 100 100 100 100
5 6 6 6 5 5 6 6 6 6 6 7 7 8 9 11 10 12 16 25 32 34 31 42 63 70 78 100 98 93 100 100 100 100 100 100 100 100 100 100 96 83 100 100 100

GFSSW_250_rhum_162.txt.gz
RH
71 88 97 100 98 92 100 100 100 100 100 96 99 100 92 100 99 75 85 87 68 66 60 60 72 68 61 68 73 63 67 74 76 90 93 100 98 97 94 87 77 62 52 46 38
100 98 98 100 91 83 67 72 97 100 100 100 100 99 96 95 89 86 99 76 68 73 76 76 61 63 56 59 56 78 77 65 55 52 63 76 76 81 80 79 99 81 56 49 42
95 99 100 88 94 100 82 73 100 100 100 93 82 98 100 100 100 100 99 83 84 75 68 82 100 95 74 68 60 71 94 75 74 72 65 56 54 57 59 72 75 61 53 56 39
94 100 100 100 99 100 89 100 100 100 100 100 97 100 100 100 100 100 100 100 98 79 76 68 86 98 84 71 90 95 100 99 89 83 73 66 60 54 46 50 54 52 58 58 45
92 100 100 92 100 100 100 100 100 100 96 100 100 100 83 93 82 89 100 100 100 100 83 100 96 94 100 100 95 100 100 96 89 85 74 63 58 53 54 55 52 53 60 68 50
81 77 98 100 100 100 100 100 100 100 100 100 96 94 89 84 74 67 65 72 69 83 86 94 87 86 93 100 79 89 95 78 63 73 73 64 56 50 66 57 50 50 81 77 57
73 82 66 74 70 80 98 100 100 100 97 100 100 97 80 76 72 64 70 77 68 69 77 84 79 74 95 90 81 79 86 83 70 71 68 60 53 55 66 65 56 81 95 81 67
80 86 93 86 87 78 64 74 96 100 96 99 86 90 90 61 67 66 64 76 82 76 72 80 76 75 77 89 90 84 79 84 71 69 76 77 64 60 60 59 72 100 91 72 79
58 70 74 61 74 79 61 74 78 71 79 78 75 57 73 52 47 50 52 68 98 87 83 76 69 66 67 75 81 81 72 68 63 56 67 78 73 63 61 60 84 84 70 75 88
29 51 58 61 39 42 42 46 47 45 39 49 49 50 54 56 62 52 46 51 68 79 92 72 65 61 65 66 67 68 63 82 65 51 49 61 74 67 66 59 67 78 99 100 82
45 41 35 64 59 45 46 65 46 38 48 48 42 58 68 72 68 61 98 100 76 68 87 75 73 71 66 63 60 76 69 60 73 68 50 42 60 70 66 62 94 94 87 85 81
72 55 61 75 81 88 89 88 96 76 97 79 69 68 100 86 89 94 100 100 100 100 100 100 85 80 94 74 54 60 54 53 56 70 47 34 48 66 69 95 81 84 91 100 93
100 96 79 90 100 68 85 100 100 94 72 81 96 68 100 100 100 92 96 95 97 100 100 90 89 84 68 85 81 66 65 54 42 53 55 54 58 70 96 84 84 98 100 100 100
100 100 100 100 100 100 99 94 82 81 75 65 61 90 100 94 84 95 100 92 59 59 81 86 88 74 66 71 86 94 80 58 44 53 72 87 61 79 96 81 66 100 100 100 100
100 100 100 100 100 100 100 88 84 72 70 65 60 59 94 100 100 95 100 100 100 100 100 100 96 85 68 79 66 64 65 50 40 60 84 100 62 87 100 76 100 100 100 100 100
54 87 77 70 70 83 87 86 68 93 53 56 81 100 80 98 100 100 100 99 89 100 100 100 100 76 86 80 60 61 57 58 48 56 52 100 100 79 88 95 97 100 100 100 100
44 56 56 68 83 81 73 68 47 64 55 71 83 85 100 96 100 100 100 100 100 100 98 99 100 98 73 73 65 71 67 74 64 69 64 100 100 97 94 100 100 100 100 100 100
52 52 55 52 61 54 52 54 49 41 50 66 62 77 79 88 100 100 99 91 82 89 100 100 100 98 96 60 70 69 65 66 91 98 88 98 64 100 100 100 100 100 100 100 100
64 63 63 54 56 56 57 55 43 45 35 43 65 53 66 72 92 100 85 92 99 94 85 98 98 81 69 71 69 66 61 83 100 100 83 93 85 90 95 100 100 100 100 100 100
95 92 84 77 77 81 75 74 59 51 49 50 57 60 58 65 63 66 67 83 95 95 85 89 79 79 59 62 68 64 80 81 96 91 99 87 100 89 90 100 100 100 100 100 100
54 58 83 97 100 88 78 74 71 59 63 60 59 75 66 62 63 55 48 58 65 65 56 55 56 54 47 44 57 75 72 74 76 87 91 81 99 92 84 96 100 100 100 100 100
19 25 48 55 80 84 70 84 72 77 66 52 38 61 75 71 59 90 70 64 46 52 44 66 51 39 39 46 51 67 78 77 72 71 81 87 77 81 95 83 82 73 77 95 100
8 9 15 22 30 41 47 42 41 49 66 42 40 40 55 71 73 75 73 73 62 64 57 66 50 59 48 53 54 52 69 84 100 87 96 97 98 100 98 84 82 81 77 64 58
4 4 6 7 8 10 14 17 19 20 25 27 30 36 53 47 57 78 90 76 66 72 73 72 56 60 58 62 54 68 59 75 94 94 100 94 76 90 94 98 68 64 68 92 66
4 5 5 6 6 7 7 8 10 11 12 17 18 22 28 36 46 47 55 68 69 69 64 82 81 77 74 67 71 78 80 93 94 89 99 89 81 84 85 100 100 78 70 92 72
5 7 7 6 6 6 6 7 7 6 6 8 9 10 13 15 19 25 28 40 60 55 77 71 77 66 52 84 99 98 95 94 100 100 100 100 99 94 94 90 100 100 100 100 96
6 7 6 6 6 6 6 6 6 6 6 6 6 6 7 7 8 12 14 23 28 45 46 50 60 43 74 97 94 88 100 100 100 100 100 98 100 100 100 100 98 100 100 100 100

GFSSW_250_rhum_165.txt.gz
RH
100 84 78 99 100 100 100 100 100 100 100 100 100 99 100 99 100 98 78 74 77 85 93 94 100 89 79 71 60 62 54 54 69 49 57 49 82 62 58 52 53 51 48 69 60
93 89 87 84 89 93 95 98 93 97 93 100 100 85 88 95 100 100 100 99 82 86 87 79 91 92 74 71 66 64 66 76 63 70 61 62 70 83 72 69 68 66 55 52 50
100 100 100 91 67 75 85 86 95 100 100 100 78 57 46 49 63 97 100 96 96 100 100 99 91 78 83 73 80 67 64 71 78 83 80 88 92 93 88 85 72 68 58 54 51
100 100 100 96 100 95 100 95 94 98 100 100 92 87 100 93 100 100 100 93 100 100 100 100 100 100 96 97 90 87 70 68 88 100 100 99 100 99 81 67 62 61 54 52 48
100 100 100 100 100 100 100 100 100 100 97 91 100 100 93 86 100 90 100 100 98 84 90 98 92 100 100 100 100 96 91 98 96 93 75 69 85 91 59 57 43 41 45 49 48
99 100 100 100 100 98 88 100 99 100 100 100 100 100 100 100 100 100 100 100 98 85 88 85 77 64 62 58 66 75 82 94 97 95 76 86 88 89 78 63 51 45 41 49 46
30 32 76 93 92 55 57 66 88 100 100 100 100 100 100 100 100 100 100 100 100 100 99 87 86 86 75 80 72 66 62 78 86 83 79 82 83 90 77 50 47 55 51 47 44
39 37 39 44 80 74 73 56 82 86 93 90 93 93 84 100 99 100 100 100 99 88 86 90 81 86 82 75 78 98 98 86 89 67 73 82 80 87 74 52 44 46 54 60 61
37 49 55 33 34 32 63 72 47 67 83 91 99 92 87 94 87 94 100 95 87 87 86 76 84 65 66 52 75 100 88 80 83 82 78 76 81 84 72 51 38 33 41 58 67
56 48 83 68 57 47 40 41 37 49 46 61 78 72 76 83 71 75 84 78 84 77 74 71 82 71 63 74 75 89 86 89 94 84 77 79 68 60 60 50 49 42 45 46 75
64 61 57 84 93 76 69 63 52 37 40 44 49 60 61 58 45 50 55 64 61 90 95 77 66 89 100 96 100 100 81 89 90 100 100 75 51 65 54 41 48 45 43 45 72
80 76 73 87 82 82 100 97 75 65 50 37 43 42 55 66 41 47 74 59 60 79 100 100 87 100 100 92 100 99 100 99 99 95 64 49 60 67 84 60 46 48 40 57 57
100 95 86 93 99 97 100 100 90 80 65 56 37 51 55 73 90 96 91 100 100 88 95 100 93 100 100 100 100 100 100 100 87 65 59 57 42 37 59 73 69 65 70 60 92
100 97 89 100 100 98 100 100 100 97 77 90 84 67 73 77 81 100 79 51 78 91 85 66 77 95 100 100 100 99 100 98 90 86 84 79 38 39 48 53 53 49 78 99 100
100 94 95 92 71 99 100 100 99 82 100 100 100 100 100 100 100 100 100 99 89 80 78 71 71 83 90 100 100 100 100 100 100 100 100 81 72 43 55 49 71 59 94 100 100
85 93 83 75 70 63 73 93 84 87 86 98 99 100 98 100 100 100 100 100 99 92 79 60 73 79 94 100 100 100 100 100 100 97 86 85 80 45 84 51 66 100 100 100 100
74 70 71 71 67 64 67 92 92 96 71 57 93 90 66 78 96 99 100 100 100 92 87 84 82 100 100 100 100 100 100 100 98 91 84 98 87 38 57 86 74 96 100 100 100
78 79 86 77 78 73 74 68 61 74 74 70 74 52 50 53 74 80 74 85 83 80 76 80 79 92 100 100 100 100 100 100 100 95 74 67 52 46 66 61 90 100 100 100 100
89 85 82 82 83 84 82 81 62 62 70 64 65 59 51 45 58 58 60 54 50 54 50 57 67 95 80 76 99 100 98 100 100 85 65 55 69 46 59 89 94 91 100 100 100
100 100 100 100 100 97 99 87 75 78 84 71 67 71 71 57 57 52 56 54 61 62 55 53 55 60 67 68 75 78 82 79 84 67 63 59 66 51 59 53 84 99 100 100 100
67 68 94 100 100 100 100 94 100 100 96 91 88 77 86 76 89 85 83 82 71 77 72 58 62 43 54 52 56 59 61 61 65 63 62 60 72 56 46 61 66 92 100 100 100
24 19 18 35 56 62 78 100 100 100 92 80 66 66 77 84 88 74 100 98 75 60 75 51 82 45 62 54 54 52 49 60 93 60 76 80 60 59 56 60 58 69 99 100 100
6 8 7 6 9 26 42 52 72 68 70 65 56 59 66 74 78 74 70 81 76 89 74 94 98 75 80 62 58 59 64 70 65 60 85 91 70 58 62 66 64 68 70 87 99
5 5 5 5 4 6 10 15 17 22 24 34 40 54 62 66 67 67 69 75 81 76 88 95 92 98 88 93 94 73 73 76 77 58 70 85 84 93 64 65 82 82 73 78 79
4 5 5 4 5 5 6 7 9 11 10 12 16 21 28 35 36 24 32 49 46 75 85 64 74 92 95 97 100 96 98 89 77 77 76 80 88 100 94 92 98 100 97 81 82
6 6 6 6 5 6 6 6 6 6 6 7 7 8 8 12 10 12 11 14 20 39 64 39 49 60 77 79 99 100 93 89 76 92 96 100 100 95 100 100 100 100 100 98 96
8 8 8 6 7 6 6 5 5 5 5 6 6 6 6 6 6 7 7 8 8 12 19 22 28 33 33 51 72 82 79 88 82 100 100 100 100 95 100 100 100 100 100 100 96

GFSSW_250_rhum_168.txt.gz
RH
87 61 75 73 73 100 100 100 100 99 84 65 88 100 100 100 100 100 100 100 100 100 100 100 94 66 79 74 63 62 57 56 73 72 47 50 40 49 50 39 74 47 64 53 66
81 96 100 100 87 99 91 97 100 100 100 100 100 100 100 100 71 76 64 100 97 86 78 85 100 100 94 100 100 97 83 87 74 56 47 72 62 49 44 42 83 93 100 100 90
87 94 91 100 100 100 99 98 96 100 99 97 100 100 100 100 100 100 100 99 87 78 71 100 100 96 100 99 100 92 100 100 100 92 81 87 93 73 58 98 85 99 78 82 61
81 100 100 95 94 99 100 100 100 100 98 100 92 99 100 100 100 100 100 100 100 89 69 100 97 100 99 100 100 100 100 100 100 100 100 100 100 85 75 44 82 55 42 83 74
90 100 100 97 84 93 100 100 100 100 96 100 100 100 100 100 100 100 100 100 100 89 96 97 89 95 98 100 96 96 87 82 91 89 76 68 53 66 64 80 66 82 56 88 71
66 58 37 49 55 51 51 87 100 100 100 100 100 100 100 99 100 100 100 100 100 100 100 100 100 100 100 100 99 96 80 79 80 83 79 64 64 50 78 84 66 63 73 84 78
56 47 47 67 64 42 36 38 81 100 100 100 100 96 92 100 100 100 100 100 100 100 100 100 100 97 100 100 100 98 98 98 98 96 78 66 49 83 80 81 66 69 93 86 76
55 66 69 68 57 36 31 37 45 32 35 70 89 85 48 57 58 84 100 100 100 100 99 99 100 100 99 96 96 90 93 100 97 75 82 86 70 73 90 86 96 95 98 88 79
53 56 67 56 54 39 36 36 35 40 38 41 47 62 50 57 73 67 85 91 92 100 100 100 100 96 86 88 98 100 100 85 81 86 80 84 74 96 100 91 86 98 100 95 80
60 57 52 44 42 38 36 33 36 38 41 54 49 42 38 36 47 52 42 65 72 76 90 94 90 95 80 75 80 82 68 78 92 100 95 94 74 86 70 96 96 78 59 78 61
46 42 48 52 47 37 36 39 42 42 46 44 46 65 64 49 59 58 58 50 50 66 56 69 74 81 88 84 78 66 58 76 100 100 99 100 97 98 88 79 92 60 41 35 34
42 47 46 47 44 42 47 53 52 49 45 42 50 54 98 86 78 71 74 63 59 49 72 87 67 87 92 64 56 71 80 76 68 84 92 82 74 85 82 88 70 54 46 35 38
46 51 55 50 63 62 62 73 75 59 67 64 74 58 77 75 90 100 96 100 92 78 64 72 93 100 97 97 100 96 70 80 72 83 70 56 49 75 95 84 93 68 61 39 57
79 70 74 73 80 91 98 84 100 99 86 81 89 83 80 93 100 100 100 100 93 95 100 81 73 99 100 100 100 100 100 73 59 63 63 80 56 57 91 93 92 98 72 49 40
94 98 77 99 100 100 100 100 100 100 97 82 85 88 100 72 88 99 100 100 100 99 98 99 100 100 100 100 100 100 100 96 80 76 73 59 57 42 100 91 100 88 68 69 58
100 100 100 100 99 100 100 100 100 100 82 68 74 69 85 98 100 90 90 79 82 100 88 82 100 100 100 100 100 100 97 86 78 76 58 48 90 72 85 100 100 98 100 78 54
93 100 100 97 100 99 100 100 100 91 77 78 88 76 68 66 69 83 81 85 89 100 86 68 100 100 100 100 98 100 100 94 80 75 73 76 86 44 99 100 100 100 100 87 67
99 96 90 91 100 100 100 98 94 97 93 99 86 89 51 73 79 68 70 71 62 69 73 67 69 92 100 92 74 79 81 81 77 74 79 67 36 43 92 100 100 100 89 68 62
100 100 99 95 93 97 100 100 100 100 100 100 98 83 78 85 85 78 71 63 70 80 77 68 68 64 72 67 58 54 53 73 72 52 45 42 40 58 77 85 89 96 92 72 57
99 100 100 100 100 99 97 91 93 94 96 89 94 91 87 96 93 89 92 88 87 76 75 66 70 59 67 68 64 41 61 62 61 50 50 46 41 47 53 64 68 69 62 69 58
100 93 88 91 85 99 93 87 90 99 100 100 100 100 100 100 100 99 99 99 95 83 82 91 74 64 87 80 95 81 77 71 60 72 50 55 49 43 40 48 54 51 50 58 51
46 33 60 78 48 47 30 52 57 72 87 84 70 74 84 90 90 84 99 84 88 95 90 94 100 71 92 100 99 100 82 65 67 66 90 75 69 51 44 56 58 55 38 52 53
13 12 11 8 10 10 13 18 21 25 45 34 28 25 37 39 43 64 86 98 100 94 98 98 94 99 95 100 100 100 88 76 90 100 100 70 73 80 79 73 82 85 62 61 60
4 5 5 6 6 7 6 5 7 8 8 10 11 10 17 12 18 32 44 65 82 91 100 96 100 100 87 84 95 100 100 100 100 100 93 85 79 77 86 100 100 92 97 93 63
4 5 5 5 6 6 6 5 5 6 7 7 7 6 7 9 9 11 15 28 46 77 77 99 97 98 100 100 100 99 91 94 100 100 82 86 74 87 86 97 100 100 100 100 99
6 6 5 5 5 5 5 5 5 5 5 5 5 6 5 5 6 7 7 8 14 41 41 48 59 56 80 100 100 100 100 100 100 100 99 94 89 100 100 92 93 91 100 100 100
6 6 6 6 8 7 7 6 6 5 4 5 5 5 5 5 6 5 6 7 8 8 9 20 24 24 26 67 67 60 96 88 90 100 100 98 94 100 92 99 96 100 90 99 100

GFSSW_250_rhum_171.txt.gz
RH
80 76 86 92 100 100 100 85 75 70 92 100 100 94 92 79 80 87 75 100 98 92 100 73 100 100 94 99 100 94 68 100 100 100 100 100 99 100 75 73 50 48 61 50 62
78 77 83 94 100 92 84 70 86 92 100 100 100 100 100 100 82 66 87 100 100 100 93 85 72 90 93 100 100 89 59 82 96 100 100 100 100 100 100 100 63 76 99 77 58
100 100 100 99 93 94 100 99 71 63 74 100 100 100 100 100 100 100 100 100 99 96 100 100 100 99 100 100 100 86 79 100 100 80 98 100 100 100 97 86 91 100 86 40 35
100 100 100 100 100 100 100 100 96 74 68 91 87 100 100 100 100 100 100 100 100 100 100 98 100 100 100 76 72 100 100 100 97 99 100 100 100 99 100 99 98 68 40 28 38
100 100 100 100 95 91 91 100 100 91 86 90 81 86 92 98 100 100 100 100 100 100 100 100 98 80 73 100 100 100 100 100 100 100 100 100 92 78 69 100 94 62 41 28 36
100 100 100 97 100 97 100 81 74 97 100 100 92 76 80 90 100 97 91 100 100 100 100 100 100 100 100 100 100 100 98 100 100 100 100 99 96 85 100 99 98 79 45 38 46
100 100 97 77 82 83 79 59 48 66 82 100 67 44 32 44 59 99 91 93 100 100 100 100 100 100 100 100 100 100 100 100 100 100 100 94 79 95 98 98 92 84 57 55 65
100 94 87 88 80 78 65 67 55 57 58 54 68 67 35 45 75 73 88 96 100 100 76 84 82 72 85 92 97 100 100 100 100 100 100 90 80 92 77 71 71 88 79 85 60
100 92 86 85 80 79 70 65 74 61 73 63 71 72 64 40 45 42 47 44 49 79 95 65 63 58 43 50 57 67 82 81 90 100 100 97 72 76 90 84 73 100 94 80 65
62 97 89 82 80 69 80 84 72 75 66 66 78 76 64 48 42 43 48 52 55 49 47 45 43 40 39 46 40 45 51 60 82 100 89 94 76 65 64 70 87 91 98 86 76
71 79 81 80 82 73 81 90 90 80 75 77 69 67 61 49 44 40 39 43 46 50 62 71 63 57 74 64 53 43 39 52 75 99 98 100 86 67 54 58 54 56 70 69 60
50 61 56 68 80 66 64 68 59 50 55 63 68 65 60 61 51 46 41 43 46 51 56 61 72 95 88 87 83 76 86 74 75 100 100 92 83 89 90 72 51 45 45 51 55
40 46 49 42 40 45 55 53 52 48 51 48 52 56 60 50 46 50 50 49 54 50 50 66 70 78 97 100 100 100 100 100 94 100 97 100 96 98 100 74 67 64 59 57 46
42 35 39 44 48 55 51 50 47 44 47 42 48 48 51 49 51 54 62 82 79 63 91 81 100 100 100 100 100 76 100 77 100 100 89 98 83 100 100 84 89 75 74 64 58
53 54 44 51 58 58 81 91 66 74 47 58 44 63 73 63 97 83 91 82 83 100 100 99 78 66 80 99 100 97 99 93 94 61 95 74 100 89 100 88 92 76 67 64 73
67 61 67 72 81 86 91 82 76 78 62 83 84 57 49 79 89 97 100 95 100 100 100 82 83 77 84 81 83 95 100 100 77 70 55 48 75 100 99 100 100 100 72 82 91
87 85 71 75 84 95 96 82 92 86 74 75 99 96 87 60 72 94 97 96 87 83 94 95 82 77 68 66 63 80 100 85 87 78 76 61 57 62 85 95 93 89 74 70 79
71 77 95 97 100 98 100 100 100 99 100 100 100 100 100 100 90 98 65 73 79 100 89 67 74 97 100 87 84 80 73 86 60 71 75 64 54 48 56 67 67 60 44 38 52
89 87 96 100 100 100 100 100 100 100 100 100 100 100 100 100 100 93 90 80 87 96 96 88 70 77 89 93 82 67 72 88 87 67 72 57 54 60 65 66 65 56 44 46 48
100 95 100 98 100 100 99 100 100 100 100 100 100 96 99 100 100 96 87 82 85 82 90 100 98 73 62 77 67 74 86 86 84 74 81 74 68 66 75 73 74 56 50 47 40
100 100 100 100 100 99 81 95 100 100 99 93 87 93 82 79 89 92 86 85 81 94 92 90 95 97 100 96 96 95 82 74 81 89 87 76 78 66 71 69 66 66 62 69 56
100 100 100 100 100 100 80 75 56 59 61 61 60 66 49 62 64 66 76 70 47 51 68 60 75 100 95 100 100 93 100 100 96 96 100 100 100 72 100 87 100 99 76 78 85
98 95 100 100 100 100 100 94 100 100 100 84 61 32 29 21 26 28 26 22 19 18 22 42 47 47 63 75 94 100 100 100 99 100 100 100 100 100 100 100 100 97 74 90 99
98 100 100 100 98 100 100 100 83 88 79 58 16 8 7 6 7 7 8 7 9 11 14 25 26 25 34 73 96 100 96 100 100 100 100 100 100 100 100 99 71 75 90 100 100
61 40 66 62 83 77 24 24 26 21 11 7 6 6 6 6 5 5 6 5 6 7 8 11 12 23 22 38 66 74 86 100 99 100 100 100 100 100 100 100 99 97 100 100 93
23 33 29 27 12 7 6 6 6 7 6 6 4 4 4 4 5 5 5 5 5 5 7 10 7 11 13 16 13 27 45 87 78 90 99 100 100 100 99 90 100 100 100 100 100
10 8 8 8 7 6 7 7 8 7 6 5 5 5 5 5 5 5 6 6 5 5 6 6 7 8 6 14 18 16 22 30 69 88 78 63 74 87 85 93 82 78 94 99 94